sat.trackr.live / text

‹ back to catalog

GAOFEN-1 02

NORAD 43259 · 2018-031A

PAYLOAD ACTIVE UNKNOWN

§ Identity

Operator
Country
PRC
Launch date
2018-03-31
Launch site
TAISC
Launch vehicle
Mass (kg)
RCS (m²)

Purposes: earth_obs

External: N2YO · Heavens-Above · Gunter

§ Orbital elements

Epoch: 2026-09-20T04:15:31.820832Z

Period
97.53 min
Inclination
98.0432°
Eccentricity
0.0004156
Mean motion
14.76484883 rev/d
Perigee alt
637.5 km
Apogee alt
643.4 km
Semi-major
7,018.6 km
B*
2.9489e-5
RAAN
325.3897°
Arg perigee
73.2102°
Mean anomaly
286.9563°
Rev number
45,671

§ Raw data

GAOFEN-1 021 43259U 18031A   26263.17745163  .00000154  00000+0  29489-4 0  99942 43259  98.0432 325.3897 0004156  73.2102 286.9563 14.76484883456714

JSON: /api/v1/satellites/43259 · /tle

For live sub-satellite position, see the globe view (requires WebGL).

§ Visibility from observer

Set your observer location to see the next 7 days of passes ≥ 10°. The values pass through the URL so the page stays shareable.

No JS? Fill the form by hand. The geolocation button needs JavaScript.